Hourly Data Report for September 14, 2017

All times are specified in Local Standard Time (LST). Add 1 hour to adjust for Daylight Saving Time where and when it is observed.

ST. STEPHEN
NEW BRUNSWICK

45°12'36.600" N
67°15'10.300" W
26.10 m
8104935
71607
WSS

Download Data

Hourly Data (September 2017)
Hourly Data Report for September 14, 2017
Temp Definition
°C
Dew Point Temp Definition
°C
Rel Hum Definition
%
Wind Dir Definition
10's deg

Wind Spd Definition
km/h
Visibility Definition
km
Stn Press Definition
kPa
Hmdx Definition


Wind Chill Definition


Weather Definition


TIME
00:00 13.1 12.0 93   0   100.50     LegendNANA
01:00 12.4 11.5 94   0   100.53     LegendNANA
02:00 12.2 11.3 95 0 1   100.53     LegendNANA
03:00 11.5 10.7 95   0   100.52     LegendNANA
04:00 11.0 10.3 96   0   100.54     LegendNANA
05:00 10.4 9.8 96   0   100.59     LegendNANA
06:00 9.8 9.2 96   0   100.61     LegendNANA
07:00 10.3 9.8 97   0   100.67     LegendNANA
08:00 15.2 13.6 90   0   100.68     LegendNANA
09:00 19.0 14.3 74 23 1   100.70     LegendNANA
10:00 22.6 15.3 64 17 3   100.68 27   LegendNANA
11:00 24.8 16.1 58 11 2   100.65 29   LegendNANA
12:00 26.4 14.9 49 23 12   100.62 30   LegendNANA
13:00 27.5 14.7 46 20 15   100.59 31   LegendNANA
14:00 28.3 14.9 44 24 8   100.56 32   LegendNANA
15:00 28.7 13.9 41 25 13   100.55 32   LegendNANA
16:00 28.8 13.2 38 24 11   100.54 32   LegendNANA
17:00 28.6 13.2 39 26 6   100.57 32   LegendNANA
18:00 24.6 16.9 62 9 4   100.65 30   LegendNANA
19:00 20.9 16.6 76 8 4   100.74 26   LegendNANA
20:00 19.2 16.4 84 10 2   100.83     LegendNANA
21:00 17.9 15.6 87 9 2   100.87     LegendNANA
22:00 16.0 14.7 92 9 2   100.91     LegendNANA
23:00 14.9 13.9 93 0 1   100.96     LegendNANA

Notes on Data Quality.

Legend

  • E = Estimated
  • M = Missing
  • NA = Not Available
  • ‡ = Partner data that is not subject to review by the National Climate Archives
Date modified: